Time,TemperatureF,DewpointF,PressureIn,WindDirection,WindDirectionDegrees,WindSpeedMPH,WindSpeedGustMPH,Humidity,HourlyPrecipIn,Conditions,Clouds,dailyrainin,SolarRadiationWatts/m^2,SoftwareType,DateUTC
2013-01-29 00:01:00,22.0,17.0,-100.00,West,276,9.0,17.0,81,0.00,,,0.00,0.700000,,2013-01-29 09:01:00,
2013-01-29 00:11:00,22.0,17.0,-100.00,West,276,9.0,17.0,81,0.00,,,0.00,0.700000,,2013-01-29 09:11:00,
2013-01-29 00:21:00,22.0,17.0,-100.00,West,276,9.0,17.0,81,0.00,,,0.00,0.700000,,2013-01-29 09:21:00,
2013-01-29 00:52:00,23.0,17.0,-100.00,WNW,282,4.0,14.0,77,0.00,,,0.00,0.800000,,2013-01-29 09:52:00,
2013-01-29 01:01:00,23.0,17.0,-100.00,WNW,282,4.0,14.0,77,0.00,,,0.00,0.800000,,2013-01-29 10:01:00,
2013-01-29 01:11:00,23.0,17.0,-100.00,WNW,282,4.0,14.0,77,0.00,,,0.00,0.800000,,2013-01-29 10:11:00,
2013-01-29 01:21:00,23.0,17.0,-100.00,WNW,282,4.0,14.0,77,0.00,,,0.00,0.800000,,2013-01-29 10:21:00,
2013-01-29 01:52:00,23.0,19.0,-100.00,NW,313,4.0,11.0,82,0.00,,,0.00,0.800000,,2013-01-29 10:52:00,
2013-01-29 02:01:00,23.0,19.0,-100.00,NW,313,4.0,11.0,82,0.00,,,0.00,0.800000,,2013-01-29 11:01:00,
2013-01-29 02:11:00,23.0,19.0,-100.00,NW,313,4.0,11.0,82,0.00,,,0.00,0.800000,,2013-01-29 11:11:00,
2013-01-29 02:21:00,23.0,19.0,-100.00,NW,313,4.0,11.0,82,0.00,,,0.00,0.800000,,2013-01-29 11:21:00,
2013-01-29 02:52:00,22.0,21.0,-100.00,WNW,282,7.0,9.0,94,0.00,,,0.00,0.800000,,2013-01-29 11:52:00,
2013-01-29 03:02:00,22.0,21.0,-100.00,WNW,282,7.0,9.0,94,0.00,,,0.00,0.800000,,2013-01-29 12:02:00,
2013-01-29 03:12:00,22.0,21.0,-100.00,WNW,282,7.0,9.0,94,0.00,,,0.00,0.800000,,2013-01-29 12:12:00,
2013-01-29 03:22:00,22.0,21.0,-100.00,WNW,282,7.0,9.0,94,0.00,,,0.00,0.800000,,2013-01-29 12:22:00,
2013-01-29 03:53:00,23.0,22.0,-100.00,WNW,285,6.0,11.0,95,0.00,,,0.00,0.800000,,2013-01-29 12:53:00,
2013-01-29 04:01:00,23.0,22.0,-100.00,WNW,285,6.0,11.0,95,0.00,,,0.00,0.800000,,2013-01-29 13:01:00,
2013-01-29 04:11:00,23.0,22.0,-100.00,WNW,285,6.0,11.0,95,0.00,,,0.00,0.800000,,2013-01-29 13:11:00,
2013-01-29 04:22:00,23.0,22.0,-100.00,WNW,285,6.0,11.0,95,0.00,,,0.00,0.800000,,2013-01-29 13:22:00,
2013-01-29 04:52:00,24.0,23.0,-100.00,WNW,287,6.0,9.0,95,0.00,,,0.00,0.800000,,2013-01-29 13:52:00,
2013-01-29 05:02:00,24.0,23.0,-100.00,WNW,287,6.0,9.0,95,0.00,,,0.00,0.800000,,2013-01-29 14:02:00,
2013-01-29 05:12:00,24.0,23.0,-100.00,WNW,287,6.0,9.0,95,0.00,,,0.00,0.800000,,2013-01-29 14:12:00,
2013-01-29 05:21:00,24.0,23.0,-100.00,WNW,287,6.0,9.0,95,0.00,,,0.00,0.800000,,2013-01-29 14:21:00,
2013-01-29 05:52:00,24.0,23.0,-100.00,NNW,335,3.0,10.0,95,0.00,,,0.00,0.800000,,2013-01-29 14:52:00,
2013-01-29 06:02:00,24.0,23.0,-100.00,NNW,335,3.0,10.0,95,0.00,,,0.00,0.800000,,2013-01-29 15:02:00,
2013-01-29 06:11:00,24.0,23.0,-100.00,NNW,335,3.0,10.0,95,0.00,,,0.00,0.800000,,2013-01-29 15:11:00,
2013-01-29 06:21:00,24.0,23.0,-100.00,NNW,335,3.0,10.0,95,0.00,,,0.00,0.800000,,2013-01-29 15:21:00,
2013-01-29 06:53:00,25.0,23.0,-100.00,North,357,3.0,7.0,92,0.00,,,0.00,0.800000,,2013-01-29 15:53:00,
2013-01-29 07:02:00,25.0,23.0,-100.00,North,357,3.0,7.0,92,0.00,,,0.00,0.800000,,2013-01-29 16:02:00,
2013-01-29 07:12:00,25.0,23.0,-100.00,North,357,3.0,7.0,92,0.00,,,0.00,0.800000,,2013-01-29 16:12:00,
2013-01-29 07:22:00,25.0,23.0,-100.00,North,357,3.0,7.0,92,0.00,,,0.00,0.800000,,2013-01-29 16:22:00,
2013-01-29 07:53:00,26.0,21.0,-100.00,NW,323,2.0,7.0,82,0.00,,,0.00,0.800000,,2013-01-29 16:53:00,
2013-01-29 08:02:00,26.0,21.0,-100.00,NW,323,2.0,7.0,82,0.00,,,0.00,0.800000,,2013-01-29 17:02:00,
2013-01-29 08:12:00,26.0,21.0,-100.00,NW,323,2.0,7.0,82,0.00,,,0.00,0.800000,,2013-01-29 17:12:00,
2013-01-29 08:21:00,26.0,21.0,-100.00,NW,323,2.0,7.0,82,0.00,,,0.00,0.800000,,2013-01-29 17:21:00,
2013-01-29 08:52:00,26.0,20.0,-100.00,West,266,4.0,8.0,77,0.00,,,0.00,0.800000,,2013-01-29 17:52:00,
2013-01-29 09:03:00,26.0,20.0,-100.00,West,266,4.0,8.0,77,0.00,,,0.00,0.800000,,2013-01-29 18:03:00,
2013-01-29 09:12:00,26.0,20.0,-100.00,West,266,4.0,8.0,77,0.00,,,0.00,0.800000,,2013-01-29 18:12:00,
2013-01-29 09:22:00,26.0,20.0,-100.00,West,266,4.0,8.0,77,0.00,,,0.00,0.800000,,2013-01-29 18:22:00,
2013-01-29 09:52:00,26.0,21.0,-100.00,SW,236,2.0,6.0,83,0.00,,,0.00,1.600000,,2013-01-29 18:52:00,
2013-01-29 10:02:00,26.0,21.0,-100.00,SW,236,2.0,6.0,83,0.00,,,0.00,1.600000,,2013-01-29 19:02:00,
2013-01-29 10:11:00,26.0,21.0,-100.00,SW,236,2.0,6.0,83,0.00,,,0.00,1.600000,,2013-01-29 19:11:00,
2013-01-29 10:22:00,26.0,21.0,-100.00,SW,236,2.0,6.0,83,0.00,,,0.00,1.600000,,2013-01-29 19:22:00,
2013-01-29 10:52:00,27.0,20.0,-100.00,North,1,4.0,4.0,76,0.00,,,0.00,29.200001,,2013-01-29 19:52:00,
2013-01-29 11:02:00,27.0,20.0,-100.00,North,1,4.0,4.0,76,0.00,,,0.00,29.200001,,2013-01-29 20:02:00,
2013-01-29 11:12:00,27.0,20.0,-100.00,North,1,4.0,4.0,76,0.00,,,0.00,29.200001,,2013-01-29 20:12:00,
2013-01-29 11:22:00,27.0,20.0,-100.00,North,1,4.0,4.0,76,0.00,,,0.00,29.200001,,2013-01-29 20:22:00,
2013-01-29 11:53:00,27.0,21.0,-100.00,NNW,347,2.0,6.0,76,0.00,,,0.00,57.200001,,2013-01-29 20:53:00,
2013-01-29 12:02:00,27.0,21.0,-100.00,NNW,347,2.0,6.0,76,0.00,,,0.00,57.200001,,2013-01-29 21:02:00,
2013-01-29 12:12:00,27.0,21.0,-100.00,NNW,347,2.0,6.0,76,0.00,,,0.00,57.200001,,2013-01-29 21:12:00,
2013-01-29 12:21:00,27.0,21.0,-100.00,NNW,347,2.0,6.0,76,0.00,,,0.00,57.200001,,2013-01-29 21:21:00,
2013-01-29 12:53:00,29.0,21.0,-100.00,SSE,163,2.0,6.0,72,0.00,,,-99.99,87.699997,,2013-01-29 21:53:00,
2013-01-29 13:02:00,29.0,21.0,-100.00,SSE,163,2.0,6.0,72,0.00,,,-99.99,87.699997,,2013-01-29 22:02:00,
2013-01-29 13:12:00,29.0,21.0,-100.00,SSE,163,2.0,6.0,72,0.00,,,-99.99,87.699997,,2013-01-29 22:12:00,
2013-01-29 13:21:00,29.0,21.0,-100.00,SSE,163,2.0,6.0,72,0.00,,,-99.99,87.699997,,2013-01-29 22:21:00,
2013-01-29 13:53:00,29.0,23.0,-100.00,West,263,7.0,7.0,78,0.00,,,0.00,80.599998,,2013-01-29 22:53:00,
2013-01-29 14:02:00,29.0,23.0,-100.00,West,263,7.0,7.0,78,0.00,,,0.00,80.599998,,2013-01-29 23:02:00,
2013-01-29 14:11:00,29.0,23.0,-100.00,West,263,7.0,7.0,78,0.00,,,0.00,80.599998,,2013-01-29 23:11:00,
2013-01-29 14:22:00,29.0,23.0,-100.00,West,263,7.0,7.0,78,0.00,,,0.00,80.599998,,2013-01-29 23:22:00,
2013-01-29 14:53:00,29.0,23.0,-100.00,NE,52,3.0,11.0,78,0.00,,,0.00,79.900002,,2013-01-29 23:53:00,
2013-01-29 15:02:00,29.0,23.0,-100.00,NE,52,3.0,11.0,78,0.00,,,0.00,79.900002,,2013-01-30 00:02:00,
2013-01-29 15:11:00,29.0,23.0,-100.00,NE,52,3.0,11.0,78,0.00,,,0.00,79.900002,,2013-01-30 00:11:00,
2013-01-29 15:21:00,29.0,23.0,-100.00,NE,52,3.0,11.0,78,0.00,,,0.00,79.900002,,2013-01-30 00:21:00,
2013-01-29 15:53:00,29.0,24.0,-100.00,ENE,64,2.0,4.0,80,0.00,,,0.00,79.900002,,2013-01-30 00:53:00,
2013-01-29 16:01:00,29.0,24.0,-100.00,ENE,64,2.0,4.0,80,0.00,,,0.00,79.900002,,2013-01-30 01:01:00,
2013-01-29 16:11:00,29.0,24.0,-100.00,ENE,64,2.0,4.0,80,0.00,,,0.00,79.900002,,2013-01-30 01:11:00,
2013-01-29 16:22:00,29.0,24.0,-100.00,ENE,64,2.0,4.0,80,0.00,,,0.00,79.900002,,2013-01-30 01:22:00,
2013-01-29 16:52:00,27.0,25.0,-100.00,NE,43,4.0,4.0,92,0.00,,,0.00,18.799999,,2013-01-30 01:52:00,
2013-01-29 17:02:00,27.0,25.0,-100.00,NE,43,4.0,4.0,92,0.00,,,0.00,18.799999,,2013-01-30 02:02:00,
2013-01-29 17:12:00,27.0,25.0,-100.00,NE,43,4.0,4.0,92,0.00,,,0.00,18.799999,,2013-01-30 02:12:00,
2013-01-29 17:21:00,27.0,25.0,-100.00,NE,43,4.0,4.0,92,0.00,,,0.00,18.799999,,2013-01-30 02:21:00,
2013-01-29 17:53:00,27.0,26.0,-100.00,NNW,342,2.0,6.0,96,0.00,,,0.00,4.700000,,2013-01-30 02:53:00,
2013-01-29 18:02:00,27.0,26.0,-100.00,NNW,342,2.0,6.0,96,0.00,,,0.00,4.700000,,2013-01-30 03:02:00,
2013-01-29 18:11:00,27.0,26.0,-100.00,NNW,342,2.0,6.0,96,0.00,,,0.00,4.700000,,2013-01-30 03:11:00,
2013-01-29 18:21:00,27.0,26.0,-100.00,NNW,342,2.0,6.0,96,0.00,,,0.00,4.700000,,2013-01-30 03:21:00,
2013-01-29 18:52:00,27.0,26.0,-100.00,NE,40,4.0,6.0,96,0.00,,,0.00,0.800000,,2013-01-30 03:52:00,
2013-01-29 19:02:00,27.0,26.0,-100.00,NE,40,4.0,6.0,96,0.00,,,0.00,0.800000,,2013-01-30 04:02:00,
2013-01-29 19:11:00,27.0,26.0,-100.00,NE,40,4.0,6.0,96,0.00,,,0.00,0.800000,,2013-01-30 04:11:00,
2013-01-29 19:21:00,27.0,26.0,-100.00,NE,40,4.0,6.0,96,0.00,,,0.00,0.800000,,2013-01-30 04:21:00,
2013-01-29 19:52:00,28.0,27.0,-100.00,NW,321,2.0,6.0,97,0.00,,,0.00,0.800000,,2013-01-30 04:52:00,
2013-01-29 20:03:00,28.0,27.0,-100.00,NW,321,2.0,6.0,97,0.00,,,0.00,0.800000,,2013-01-30 05:03:00,
2013-01-29 20:11:00,28.0,27.0,-100.00,NW,321,2.0,6.0,97,0.00,,,0.00,0.800000,,2013-01-30 05:11:00,
2013-01-29 20:22:00,28.0,27.0,-100.00,NW,321,2.0,6.0,97,0.00,,,0.00,0.800000,,2013-01-30 05:22:00,
2013-01-29 20:52:00,28.0,27.0,-100.00,North,9,4.0,6.0,97,0.00,,,0.00,0.800000,,2013-01-30 05:52:00,
2013-01-29 21:02:00,28.0,27.0,-100.00,North,9,4.0,6.0,97,0.00,,,0.00,0.800000,,2013-01-30 06:02:00,
2013-01-29 21:11:00,28.0,27.0,-100.00,North,9,4.0,6.0,97,0.00,,,0.00,0.800000,,2013-01-30 06:11:00,
2013-01-29 21:21:00,28.0,27.0,-100.00,North,9,4.0,6.0,97,0.00,,,0.00,0.800000,,2013-01-30 06:21:00,
2013-01-29 21:52:00,29.0,28.0,-100.00,West,275,6.0,7.0,98,0.00,,,0.00,0.800000,,2013-01-30 06:52:00,
2013-01-29 22:01:00,29.0,28.0,-100.00,West,275,6.0,7.0,98,0.00,,,0.00,0.800000,,2013-01-30 07:01:00,
2013-01-29 22:11:00,29.0,28.0,-100.00,West,275,6.0,7.0,98,0.00,,,0.00,0.800000,,2013-01-30 07:11:00,
2013-01-29 22:21:00,29.0,28.0,-100.00,West,275,6.0,7.0,98,0.00,,,0.00,0.800000,,2013-01-30 07:21:00,
2013-01-29 22:52:00,30.0,29.0,-100.00,West,281,4.0,10.0,98,0.00,,,0.00,0.800000,,2013-01-30 07:52:00,
2013-01-29 23:01:00,30.0,29.0,-100.00,West,281,4.0,10.0,98,0.00,,,0.00,0.800000,,2013-01-30 08:01:00,
2013-01-29 23:11:00,30.0,29.0,-100.00,West,281,4.0,10.0,98,0.00,,,0.00,0.800000,,2013-01-30 08:11:00,
2013-01-29 23:21:00,30.0,29.0,-100.00,West,281,4.0,10.0,98,0.00,,,0.00,0.800000,,2013-01-30 08:21:00,
2013-01-29 23:52:00,30.0,30.0,-100.00,NNE,22,2.0,9.0,99,0.00,,,0.00,0.800000,,2013-01-30 08:52:00,